{"data":{"norad_id":48794,"intl_designator":"2021-045AD","name":"ONEWEB-0224","alt_names":[],"object_type":"PAYLOAD","status":"ACTIVE","operator":null,"country":"UK","launch_date":"2021-05-28","launch_site_code":"VOSTO","launch_vehicle":null,"mission":null,"orbit_class":"UNKNOWN","rcs_meters":null,"size_class":null,"mass_kg":null,"dimensions":null,"purposes":["comms"],"wikipedia_slug":null,"has_3d_model":false,"image_url":null,"decayed_at":null,"tle_current":{"epoch":"2026-05-25T01:04:39.219168Z","epoch_age_seconds":78138,"freshness":"FRESH","line1":"1 48794U 21045AD  26145.04489837 -.00000184  00000+0 -52303-3 0  9995","line2":"2 48794  87.8991 263.8386 0001397 126.1271 233.9989 13.15549868241237","mean_motion":13.155498680000001,"eccentricity":0.0001397,"inclination_deg":87.8991,"raan_deg":263.8386,"arg_perigee_deg":126.1271,"mean_anomaly_deg":233.9989,"bstar":-0.00052303,"rev_number":24123,"period_min":109.45993268877,"perigee_km":1200.7067923696,"apogee_km":1202.8246171853,"semimajor_km":7579.9027047774,"source":"CELESTRAK","updated_at":"2026-05-25T13:38:22.447336Z"}}}